Flag for Saudi Arabia Weather past 2 weeks in Medina, Saudi Arabia

Now
91 °F

Clear.


Feels Like: 87 °F
Forecast: 71 / 97 °F
Wind: 13 mph from Southwest

Location: Madinah

Current Time: Mar 30, 2015 at 7:36:43 PM

Latest Report: Mar 30, 2015 at 7:00 PM


Visibility: 10 mi

Pressure: 29.92 "Hg

Humidity: 17%

Dew point: 41 °F

Location of MedinaLocation

Historic Weather in Medina — Graph

°F

Medina temperature yesterday

Maximum temperature yesterday: 102 °F (at 2:00 PM)
Minimum temperature yesterday: 79 °F (at 6:00 AM)
Average temperature yesterday: 90 °F

Past Weeks' High & Low Weather Summary

 TemperatureHumidityPressure
High102 °F (Mar 29, 2:00 PM)64% (Mar 25, 6:00 AM)30.18 "Hg (Mar 25, 6:00 AM)
Low61 °F (Mar 19, 7:00 AM)1% (Mar 21, 2:00 PM)29.83 "Hg (Mar 19, 4:00 PM)
Average81 °F22%29.97 "Hg
* Reported Mar 15 6:00 PM — Mar 30 6:00 PM, Medina, Weather by CustomWeather, © 2015

Note: Actual official high and low records may vary slightly from our data, if they occured in-between our weather recording intervals... More about our weather records

Advertising

Medina weather history for previous 24 hours

 ConditionsComfort  
Time TempWeatherWind HumidityBarometerVisibility
6:00 PM
Mon, Mar 30
93 °FSunny.16 mph16%29.89 "Hg10 mi
5:00 PM95 °FSunny.21 mph14%29.89 "Hg10 mi
4:00 PM99 °FSunny.17 mph13%29.86 "Hg10 mi
3:00 PM99 °FClear.17 mph11%29.89 "Hg6 mi
2:00 PM99 °FClear.14 mph11%29.89 "Hg4 mi
1:00 PM99 °FClear.21 mph12%29.92 "Hg4 mi
12:00 PM97 °FClear.12 mph13%29.95 "Hg4 mi
11:00 AM93 °FClear.9 mph15%29.98 "Hg4 mi
10:00 AM90 °FClear.7 mph18%29.98 "Hg4 mi
9:00 AM86 °FDuststorm.7 mph22%29.98 "Hg3 mi
8:00 AM81 °FClear.7 mph26%29.98 "Hg4 mi
7:00 AM77 °FClear.No wind26%29.98 "Hg5 mi
6:00 AM81 °FClear.No wind24%29.95 "Hg5 mi
5:00 AM84 °FClear.7 mph22%29.92 "Hg10 mi
4:00 AM86 °FClear.7 mph20%29.92 "Hg10 mi
3:00 AM86 °FClear.9 mph20%29.92 "Hg10 mi
2:00 AM86 °FClear.9 mph20%29.92 "Hg10 mi
1:00 AM88 °FClear.5 mph19%29.95 "Hg10 mi
12:00 AM88 °FClear.3 mph19%29.95 "Hg5 mi
11:00 PM
Sun, Mar 29
90 °FClear.3 mph18%29.95 "Hg4 mi
10:00 PM91 °FClear.9 mph17%29.95 "Hg4 mi
9:00 PM91 °FDuststorm.12 mph16%29.92 "Hg3 mi
8:00 PM93 °FDuststorm.10 mph16%29.89 "Hg2 mi
7:00 PM95 °FDuststorm.14 mph15%29.86 "Hg3 mi
Weather by CustomWeather, © 2015

See weather overviewHow to use our weather pages